Flag for China Weather past 2 weeks in Taiyuan, China

Now
59 °F

Sprinkles. Haze.


Feels Like: 57 °F
Forecast: 50 / 62 °F
Wind: 13 mph from East

Location: Taiyuan Airport


UV Index: 0 (Low)

Visibility: 2 mi


Pressure: 29.98 "Hg

Humidity: 63%

Dew point: 46 °F

Location of TaiyuanLocation

Historic Weather in Taiyuan

°F

Taiyuan temperature yesterday

Maximum temperature yesterday: 64 °F (at 3:30 PM)
Minimum temperature yesterday: 52 °F (at 12:00 AM)
Average temperature yesterday: 58 °F

Past Weeks' High & Low Weather Summary

 TemperatureHumidityPressure
High81 °F (Apr 9, 3:00 PM)94% (Apr 13, 3:00 AM)30.24 "Hg (Apr 13, 3:00 AM)
Low34 °F (Apr 4, 6:00 AM)7% (Apr 3, 3:30 PM)29.83 "Hg (Apr 9, 3:30 PM)
Average57 °F49%30.03 "Hg
* Reported Apr 3 2:00 PM — Apr 18 2:00 PM, Taiyuan, Weather by CustomWeather, © 2014

Note: Actual official high and low records may vary slightly from our data, if they occured in-between our weather recording intervals... More about our weather records

Advertising

Historic Weather Conditions — Data for Previous 24 hours

 ConditionsComfort  
Time TempWeatherWind HumidityBarometerVisibility
2:00 PM
Apr 18
63 °FHaze.17 mph59%29.98 "Hg2 mi
1:30 PM63 °FHaze.22 mph59%29.98 "Hg3 mi
1:00 PM63 °FHaze.17 mph59%29.98 "Hg3 mi
12:30 PM63 °FHaze.17 mph59%30.01 "Hg3 mi
12:00 PM63 °FHaze.17 mph59%30.01 "Hg3 mi
11:30 AM63 °FHaze.13 mph59%30.01 "Hg2 mi
11:00 AM63 °FHaze.15 mph59%30.04 "Hg2 mi
10:30 AM61 °FHaze.10 mph63%30.04 "Hg2 mi
10:00 AM61 °FHaze.10 mph63%30.07 "Hg2 mi
9:30 AM59 °FHaze.10 mph68%30.07 "Hg1 mi
9:00 AM55 °FFog.10 mph77%30.07 "Hg1 mi
8:30 AM55 °FFog.13 mph77%30.07 "Hg1 mi
8:00 AM54 °FFog.13 mph82%30.04 "Hg1 mi
7:30 AM54 °FFog.13 mph82%30.04 "Hg1 mi
7:00 AM54 °FFog.15 mph82%30.04 "Hg1 mi
6:30 AM52 °FFog.15 mph88%30.01 "Hg1 mi
6:00 AM52 °FFog.15 mph88%30.01 "Hg1 mi
5:30 AM54 °FFog.8 mph77%30.01 "Hg2 mi
5:00 AM50 °FFog.3 mph88%30.01 "Hg2 mi
4:30 AM50 °FFog.1 mph88%30.01 "Hg2 mi
4:00 AM52 °FFog.1 mph82%30.01 "Hg2 mi
3:30 AM52 °FFog.1 mph82%30.01 "Hg2 mi
3:00 AM54 °FFog.1 mph82%29.98 "Hg2 mi
2:30 AM52 °FFog.1 mph82%29.98 "Hg2 mi
2:00 AM52 °FFog.1 mph88%29.98 "Hg2 mi
1:00 AM52 °FFog.1 mph88%29.98 "Hg2 mi
12:30 AM54 °FFog.No wind82%29.98 "Hg2 mi
12:00 AM55 °FFog.1 mph77%29.98 "Hg2 mi
11:30 PM
Apr 17
57 °FFog.3 mph77%29.98 "Hg2 mi
11:00 PM57 °FFog.6 mph77%29.98 "Hg2 mi
10:30 PM57 °FFog.6 mph77%29.98 "Hg2 mi
10:00 PM57 °FFog.6 mph82%29.98 "Hg2 mi
9:30 PM57 °FFog.3 mph77%29.98 "Hg2 mi
9:00 PM59 °FFog.3 mph77%29.95 "Hg2 mi
8:30 PM59 °FFog.3 mph77%29.95 "Hg3 mi
8:00 PM57 °FHaze.1 mph77%29.92 "Hg3 mi
7:30 PM61 °FClear.3 mph68%29.89 "Hg4 mi
7:00 PM63 °FClear.3 mph64%29.89 "Hg4 mi
6:30 PM63 °FClear.3 mph64%29.89 "Hg4 mi
6:00 PM64 °FClear.3 mph60%29.89 "Hg4 mi
5:30 PM64 °FClear.6 mph56%29.89 "Hg4 mi
5:00 PM64 °FClear.6 mph56%29.89 "Hg4 mi
4:30 PM64 °FHaze.6 mph60%29.89 "Hg2 mi
4:00 PM64 °FHaze.8 mph60%29.89 "Hg2 mi
3:30 PM64 °FHaze.6 mph64%29.86 "Hg2 mi
3:00 PM63 °FHaze.3 mph64%29.86 "Hg2 mi
Weather by CustomWeather, © 2014

See weather overview